Volver al catálogo

COSMOS 2251 DEB

ActivoLEO
NORAD 34015·DEBRIS·🇷🇺 Russia

Lanzado Jun 16, 1993 desde Plesetsk Cosmodrome

Loading…

Próximos Pases (próximas 24 horas)

TLE

ActualizadoSource: Space-Track

Época: Sep 14, 2026, 06:05 UTC

1 34015U 93036HA  26257.25392684  .00002698  00000-0  54165-3 0  9994
2 34015  74.0258 352.2746 0021076  16.2851  14.3019 14.62054404925553

Sigue COSMOS 2251 DEB en tiempo real con AllMySat

Download on the App Store